Tracking 21475 objects as of 29-Sep-2020
HD Live streaming from Space Station
objects crossing your sky now

ARIANE 42L R/B

Track ARIANE 42L R/B now!
10-day predictions


NORAD ID: 25586
Int'l Code: 1998-075B
Perigee: 154.0 km
Apogee: 10,256.4 km
Inclination: 7.5 °
Period: 206.6 minutes
Semi major axis: 11576 km
RCS: 21.3079 m2 (large)
Launch date: December 22, 1998
Source: France (FR)
Launch site: FRENCH GUIANA (FRGUI)

Note: This is a ROCKET BODY
aabbcc
Your satellite tracking list
Your tracking list is empty




NASA's NSSDC Master Catalog

Two Line Element Set (TLE):
1 25586U 98075B   20272.53373149  .00864420 -87252-6  12156-2 0  9995
2 25586   7.5037  79.3167 4363465  53.7575 339.1976  6.97035887288375
Source of the keplerian elements: AFSPC